Location: Le Domaine
(47.0333°N, 76.5361°W)
Time: 15:38:19
(UTC-05:00)

Explorer 11/Cluster Stage 4 - Pass Details

Date: 21 November 2019
Orbit: 467 x 1259 km, 28.8° (Epoch: 15 December)

Event Time Altitude Azimuth Distance (km) Brightness Sun altitude
Rises 19:35:44 0° 217° (SW) 3,064 10.0 -32.0°
Enters shadow 19:38:37 - 196° (SSW) 2,492 9.2 -32.5°
Reaches altitude 10° 19:40:02 10° 182° (S) 2,363 - -32.8°
Maximum altitude 19:41:32 11° 166° (SSE) 2,365 - -33.0°
Drops below altitude 10° 19:43:07 10° 151° (SSE) 2,516 - -33.3°
Sets 19:48:16 0° 119° (ESE) 3,704 - -34.2°
